"Pseudo-MPEC" for ZNB9415

Created 2018 Jul 19 11:18:19 UT using Find_Orb

Click here for an explanation of pseudo-MPECs

 
 Astrometry: 
     ZNB9415  C2018 07 05.39707 01 16 48.46 +38 45 37.3                UNEOCPG96
     ZNB9415  C2018 07 05.40486 01 16 49.92 +38 45 51.3          20.4 GUNEOCPG96
     ZNB9415  C2018 07 05.40876 01 16 50.60 +38 45 57.9          20.3 GUNEOCPG96
     ZNB9415  C2018 07 05.42734 01 16 53.85 +38 46 33.2          20.1 GUNEOCPI52
     ZNB9415  C2018 07 05.42859 01 16 54.05 +38 46 34.4          21.3 GUNEOCPI52
     ZNB9415  C2018 07 05.42983 01 16 54.20 +38 46 37.5          20.4 GUNEOCPI52
     ZNB9415  C2018 07 05.43108 01 16 54.39 +38 46 39.8          20.6 GUNEOCPI52
     ZNB9415  C2018 07 05.45232 01 16 58.12 +38 47 18.5          20.9 GUNEOCPG96
     ZNB9415  C2018 07 05.45434 01 16 58.45 +38 47 22.1          21.3 GUNEOCPG96
     ZNB9415  C2018 07 05.45884 01 16 59.28 +38 47 30.1          21.0 GUNEOCPG96
     ZNB9415  C2018 07 05.46287 01 17 00.02 +38 47 38.0          21.0 GUNEOCPG96
     ZNB9415  C2018 07 05.46495 01 17 00.44 +38 47 41.1          20.6 GUNEOCPG96
     ZNB9415  C2018 07 06.40982 01 19 47.48 +39 16 02.6                UNEOCPG96
     ZNB9415  C2018 07 06.41058 01 19 47.65 +39 16 05.6          20.8 GUNEOCPG96
     ZNB9415  C2018 07 06.41205 01 19 47.94 +39 16 07.7                UNEOCPG96
     ZNB9415  C2018 07 06.41280 01 19 48.02 +39 16 08.6          21.0 GUNEOCPG96
     ZNB9415 KC2018 07 071bAstrometryW2]_Miob3,Jj,u5)^65f?\2^v7vay-s\lF%bohu!L01
     ZNB9415 KC2018 07 07lf.A!k%7K:WjQi(MZX4Yea;X-A@VcWU\ev7V!([p`LG).tdgbCRIL01
     ZNB9415  C2018 07 07.42691 01 22 47.87 +39 46 16.9          22.2 GUNEOCPI52
     ZNB9415  C2018 07 07.43595 01 22 49.40 +39 46 32.6          21.4 GUNEOCPI52
     ZNB9415  C2018 07 07.44046 01 22 50.32 +39 46 39.7                UNEOCPI52
     ZNB9415 1C2018 07 129d04+fw!wR7=(NM]V/Sp[CN0jacmT'#h2CegAq$^yRe]ct6Y/kYS658
     ZNB9415 1C2018 07 12swcd9Wm.56tX!SM@kLMWc6QToaE):ZW\M8:uO1taf6o91`@^q)NI658
     ZNB9415 1C2018 07 12]wd\XU;57h'+='4Nv;lE.#+N;W2iZIgD`G;bk,+M8HTLwVl#G-)v658
     ZNB9415 KC2018 07 15d;eDdRBJx?CLGpJKDG[!m^HG?/P;skZq0g94A7T][Z_QR/v08w#vK88
     ZNB9415 KC2018 07 15$o/Ud]ETd2nyS_-jtredacted;g)Ls8(o@GYqG^@09+mm*XJWI/mK88
     ZNB9415 KC2018 07 16*+w0XilMl3N%^Oc$:Vc-Jmc\c39fwWZ[1ktT]!J*bYCgMP[$xx`aK88
     ZNB9415 KC2018 07 162SNcdbDZMi.'c(Qm.m'+ZT+eicch#$TVRqtn;TA^bIdL+o?mcxwUK88
     ZNB9415 KC2018 07 18^xG%f%^t[jk0_`dZDM]cSh2L5uM4M\riZsI!x-O4QAD6'.q5.iBwL01
     ZNB9415 IC2018 07 18Uo2+vXXr!lF$GDewX=rVSSe$YT3wdXFPcBQuT#v#!HHfyZ)q77$VL01
     ZNB9415 IC2018 07 18o8d\:;FLaQi)(]_o8cJ:ej9ytdjeh4eqseeu=!hHEK*ccj2!-\;rL01
     ZNB9415 KC2018 07 18MTK!rf:A'qpbiK*kpUv4@FsM)4y0BJ1:fw/]Q*#F%07v@gd8-d2ZL01
     ZNB9415 1C2018 07 18GF3WC8h7$?F;KPZN*`N0K?`k-J):4;O6bm_\PY!wtLM.T2o\Bt(e658
     ZNB9415 1C2018 07 18c,H#t,04I$M#:#6;1B(?P:h36bir'R$*/xHpc\?AcB[fYPADL#=#658
     ZNB9415 1C2018 07 18q`j-3%*?]4(56xxL=?5:TUM+vKWyB4J($W+76i0sW9cm7a?/[.#5658
     ZNB9415 1C2018 07 18cPt:URmwfEOe6@.Gme`V2wr+,S9/BV9=pnodF5\LZ1kqQyrEX!PU658
     ZNB9415 1C2018 07 18M[t%#*s@!AiegXGm92^dd7\cUn_#l@?LnyOyroTm8?[q@NdNEOCP658

Station data:
(658) Dominion Astrophysical Observatory  (N48.519987 W123.417000)
   Canada/BritColumbia. 1.82-m Plaskett reflector.
(G96) Mt. Lemmon Survey  (N32.442754 W110.788720)  US/Arizona.  Observers B.
   M. Africano, E. J. Christensen, D. C. Fuls, A. R. Gibbs, A. D. Grauer, J.
   A. Johnson, R. A. Kowalski, S. M. Larson, G. J. Leonard, R. L. Seaman, F.
   C. Shelly. 1.5-m reflector + 10K CCD.
(I52) Steward Observatory, Mt. Lemmon Station  (N32.442547 W110.788920)
   US/Arizona.  Observers B. M. Africano, E. J. Christensen, D. C. Fuls, A.
   R. Gibbs, A. D. Grauer, J. A. Johnson, R. A. Kowalski, S. M. Larson, G. J.
   Leonard, R. L. Seaman, F. C. Shelly. 1.0-m reflector + CCD.
(K88) GINOP-KHK, Piszkéstető  (N47.917622 E19.893600)  Hungary.  Observer K.
   Sárneczky. 0.60-m Schmidt + CCD.
(L01) Višnjan Observatory, Tičan  (N45.290900 E13.749300)  Croatia.  Observer
   K. Korlević. 1.0-m f/2.9 reflector + CCD.

Orbital elements:  ZNB9415
   Perihelion 2018 Jun 11.415583 +/- 0.813 TT =  9:58:26 (JD 2458280.915583)
Epoch 2018 Jul 18.0 TT = JDT 2458317.5   Earth MOID: 0.4762   AutoNEOCP
M   9.22383 +/- 0.6                 (J2000 ecliptic)
n   0.25212456 +/- 0.0124           Peri.   50.44488 +/- 0.58
a   2.48156663 +/- 0.0812           Node   279.17542 +/- 0.34
e   0.4411305 +/- 0.0153            Incl.   28.88897 +/- 0.07
P   3.91                   H 18.0   G  0.15   U  9.8  
q 1.38687180 +/- 0.00776    Q 3.57626145 +/- 0.165
From 37 observations 2018 July 5-18; mean residual 0".47
Residuals in arcseconds: 
180705 G96  .73-  .29+    180706 G96  .01-  .34+    180716 K88  .05+  .35+    
180705 G96  .39+  .01+    180706 G96  .36+  .23-    180716 K88  .01-  .34+    
180705 G96  .36+  .54-    180706 G96  .24-  .69-    180718 L01  .02+  .16+    
180705 I52  .38+  .72+    180707 L01  .81+  .43+    180718 L01  .14+  .24+    
180705 I52  .17+  .37-    180707 L01  .73+  .04+    180718 L01  .17-  .19+    
180705 I52  .61-  .46+    180707 I52  .22+  .05+    180718 L01  .25+  .05+    
180705 I52  .94-  .47+    180707 I52  .45-  .43-    180718 658  .17+  .11-    
180705 G96  .66-  .31+    180707 I52  1.0+  1.4-    180718 658  .44-  .48-    
180705 G96  .92-  .22+    180712 658  .85-  .15-    180718 658  .06+  .42-    
180705 G96  .38-  .01-    180712 658  .37-  .32+    180718 658  .11+  .18-    
180705 G96  .06+  .53+    180712 658  .46-  .38+    180718 658  .10+  .50-    
180705 G96  .73+  .17-    180715 K88  .20+  .17+    
180706 G96  .44-  1.3-    180715 K88  .24+  .09+    

Ephemerides (geocentric):
Date (UTC) HH   RA              Dec         delta   r     elong  mag " sig PA
---- -- -- --  -------------   -----------  ------ ------ -----  --- ---- ---
2018 07 19 11  01 58 58.432   +45 14 25.65  1.3195 1.4345  74.5 21.1  .66  87
2018 07 19 12  01 59 06.047   +45 15 27.99  1.3194 1.4346  74.5 21.1  .67  87
2018 07 19 13  01 59 13.663   +45 16 30.29  1.3194 1.4347  74.5 21.1  .68  87
2018 07 19 14  01 59 21.279   +45 17 32.55  1.3194 1.4348  74.5 21.1  .69  87
2018 07 19 15  01 59 28.896   +45 18 34.76  1.3194 1.4349  74.5 21.1  .70  87
2018 07 19 16  01 59 36.514   +45 19 36.94  1.3193 1.4350  74.6 21.1  .71  87
2018 07 19 17  01 59 44.131   +45 20 39.07  1.3193 1.4351  74.6 21.1  .72  87
2018 07 19 18  01 59 51.750   +45 21 41.16  1.3193 1.4352  74.6 21.1  .73  87
2018 07 19 19  01 59 59.369   +45 22 43.22  1.3193 1.4353  74.6 21.1  .74  87
2018 07 19 20  02 00 06.988   +45 23 45.23  1.3192 1.4354  74.6 21.1  .75  87
2018 07 19 21  02 00 14.608   +45 24 47.20  1.3192 1.4355  74.6 21.1  .76  87
2018 07 19 22  02 00 22.228   +45 25 49.12  1.3192 1.4356  74.6 21.1  .77  87
2018 07 19 23  02 00 29.849   +45 26 51.01  1.3192 1.4357  74.6 21.1  .77  87
2018 07 20 00  02 00 37.470   +45 27 52.85  1.3191 1.4358  74.6 21.1  .78  87
2018 07 20 01  02 00 45.092   +45 28 54.66  1.3191 1.4359  74.6 21.1  .79  87
2018 07 20 02  02 00 52.714   +45 29 56.42  1.3191 1.4360  74.6 21.1  .80  87
2018 07 20 03  02 01 00.337   +45 30 58.14  1.3190 1.4361  74.6 21.1  .81  87
2018 07 20 04  02 01 07.960   +45 31 59.82  1.3190 1.4362  74.6 21.1  .83  87
2018 07 20 05  02 01 15.584   +45 33 01.46  1.3190 1.4363  74.7 21.1  .84  87
2018 07 20 06  02 01 23.208   +45 34 03.06  1.3190 1.4364  74.7 21.1  .85  87
2018 07 20 07  02 01 30.832   +45 35 04.61  1.3189 1.4366  74.7 21.1  .86  87
2018 07 20 08  02 01 38.457   +45 36 06.13  1.3189 1.4367  74.7 21.1  .87  87
2018 07 20 09  02 01 46.083   +45 37 07.60  1.3189 1.4368  74.7 21.1  .88  87
2018 07 20 10  02 01 53.709   +45 38 09.03  1.3189 1.4369  74.7 21.1  .89  87
2018 07 20 11  02 02 01.336   +45 39 10.42  1.3188 1.4370  74.7 21.1  .90  87
2018 07 20 12  02 02 08.963   +45 40 11.77  1.3188 1.4371  74.7 21.1  .91  87
2018 07 20 13  02 02 16.590   +45 41 13.08  1.3188 1.4372  74.7 21.1  .92  87
2018 07 20 14  02 02 24.218   +45 42 14.34  1.3188 1.4373  74.7 21.1  .93  87
2018 07 20 15  02 02 31.846   +45 43 15.57  1.3187 1.4374  74.7 21.1  .94  87
2018 07 20 16  02 02 39.475   +45 44 16.75  1.3187 1.4375  74.7 21.1  .95  87
2018 07 20 17  02 02 47.104   +45 45 17.89  1.3187 1.4376  74.8 21.1  .97  87
2018 07 20 18  02 02 54.734   +45 46 19.00  1.3187 1.4377  74.8 21.1  .98  87
2018 07 20 19  02 03 02.364   +45 47 20.05  1.3186 1.4378  74.8 21.1  .99  87
2018 07 20 20  02 03 09.995   +45 48 21.07  1.3186 1.4379  74.8 21.1  1.0  86
2018 07 20 21  02 03 17.626   +45 49 22.05  1.3186 1.4380  74.8 21.1  1.0  86
2018 07 20 22  02 03 25.257   +45 50 22.98  1.3185 1.4381  74.8 21.1  1.0  86
2018 07 20 23  02 03 32.889   +45 51 23.88  1.3185 1.4382  74.8 21.1  1.0  86
2018 07 21 00  02 03 40.521   +45 52 24.73  1.3185 1.4383  74.8 21.1  1.0  86
2018 07 21 01  02 03 48.154   +45 53 25.54  1.3185 1.4384  74.8 21.1  1.1  86
2018 07 21 02  02 03 55.787   +45 54 26.31  1.3184 1.4385  74.8 21.1  1.1  86
2018 07 21 03  02 04 03.421   +45 55 27.04  1.3184 1.4386  74.8 21.1  1.1  86
2018 07 21 04  02 04 11.055   +45 56 27.73  1.3184 1.4387  74.8 21.1  1.1  86
2018 07 21 05  02 04 18.690   +45 57 28.37  1.3184 1.4388  74.8 21.1  1.1  86
2018 07 21 06  02 04 26.325   +45 58 28.98  1.3183 1.4390  74.9 21.1  1.1  86
2018 07 21 07  02 04 33.960   +45 59 29.54  1.3183 1.4391  74.9 21.1  1.1  86
2018 07 21 08  02 04 41.596   +46 00 30.06  1.3183 1.4392  74.9 21.1  1.1  86
2018 07 21 09  02 04 49.232   +46 01 30.54  1.3183 1.4393  74.9 21.1  1.2  86
2018 07 21 10  02 04 56.868   +46 02 30.98  1.3182 1.4394  74.9 21.1  1.2  86